Regional Weather Roundup
Issued by NWS Wakefield, VA

Home | Current Version | Previous Version | Text Only | Print | Product List | Glossary On
Versions: 1 2 3 4 5 6 7 8 9 10 11 12 13 14 15 16 17 18 19 20 21 22 23 24 25 26 27
000
ASUS41 KAKQ 260810
RWRAKQ

REGIONAL WEATHER ROUNDUP
NATIONAL WEATHER SERVICE WAKEFIELD VA
400 AM EDT SUN OCT 26 2014

Note: "fair" indicates few or no clouds below 12,000 feet with no
significant weather and/or obstructions to visibility. * = Denotes
station may not report precipitation (e.g., rain,snow,etc.),
thunder or fog.

VAZ042-051-052>054-056-260900-
NORTHERN VIRGINIA

CITY           SKY/WX    TMP DP  RH WIND       PRES   REMARKS
WASH NATIONAL  PTCLDY    66  41  40 W15G25    29.70R
DULLES         PTCLDY    63  40  42 NW25G35   29.70S
FORT BELVOIR   CLEAR     45  44  95 S2        29.71R
QUANTICO       CLEAR     50  46  86 NW6       29.72R
FREDERICKSBRG* CLEAR     56  48  73 CALM      29.70F
STAFFORD*      CLEAR     51  45  79 CALM      29.75S
WARRENTON      CLEAR     50  48  93 W3        29.71S
CULPEPER*      CLEAR     45  45 100 CALM      29.72F
MANASSAS*      CLEAR     45  45 100 CALM      29.72R
LEESBURG*      PTCLDY    63  45  51 NW16      29.71R
WINCHESTER     CLEAR     61  27  27 NW18      29.74R
FRONT ROYAL*   MOSUNNY   61  39  44 NW7       29.72S
LURAY*         SUNNY     64  32  29 NW13G25   29.74S
$$

VAZ048-049-060>072-079>083-260900-
CENTRAL AND SOUTH CENTRAL VIRGINIA...AND NORTH CENTRAL NORTH CAROLINA

CITY           SKY/WX    TMP DP  RH WIND       PRES   REMARKS
RICHMOND       CLEAR     58  47  66 W6        29.73F
CHESTERFIELD*    N/A    N/A N/A N/A MISG        N/A
PETERSBURG*    CLEAR     52  47  81 SW5       29.75F
HANOVER        CLEAR     57  48  72 W6        29.74F
TAPPAHANNOCK*  CLEAR     58  44  60 SW6       29.71F
CHARLOTTSVILLE CLEAR     60  43  53 VRB5      29.73F
ORANGE*        CLEAR     54  45  71 CALM      29.73F
LOUISA*        CLEAR     50  46  87 SW3       29.72S
FARMVILLE*     CLEAR     54  48  82 SW5       29.74S
CREWE*         SUNNY     52  47  83 CALM      29.75F
FORT PICKETT*  SUNNY     53  47  81 SW6       29.76F
LUNENBURG*     SUNNY     55  48  79 CALM      29.77S
SOUTH HILL*    PTCLDY    54  48  82 SW5       29.83F
LAWRENCEVILLE* SUNNY     53  47  80 W3        29.76F
ROANOKE RAPIDS SUNNY     55  46  71 W9        29.78S
RALEIGH        CLEAR     51  43  74 CALM      29.82F
$$

VAZ088>098-260900-
SOUTHEAST VIRGINIA

CITY           SKY/WX    TMP DP  RH WIND       PRES   REMARKS
NORFOLK        CLEAR     58  45  62 W8        29.72F
VIRGINIA BEACH CLEAR     54  42  64 W8        29.72F
NORFOLK NAVAL  CLEAR     59  47  64 W6        29.74F
WEST POINT*    CLEAR     51  47  85 CALM      29.73S
NEWPORT NEWS   CLEAR     59  48  67 W8        29.72F
LANGLEY AFB    CLEAR     55  48  78 SW8       29.72F
FORT EUSTIS    CLEAR     57  48  70 NW5       29.71F
WILLIAMSBURG*  CLEAR     57  48  72 W9        29.74S
HR EXEC AP*    SUNNY     48  45  87 W5        29.75F
FRANKLIN*      CLEAR     54  45  71 CALM      29.75F
WAKEFIELD      CLEAR     55  46  71 SW3       29.74F
$$

VAZ020-022-025-037-045-260900-
WEST CENTRAL AND SOUTHWEST VIRGINIA

CITY           SKY/WX    TMP DP  RH WIND       PRES   REMARKS
STAUNTON*      CLEAR     62  34  35 NW8       29.78F
HOT SPRINGS VA CLOUDY    53  43  67 W13G24    29.80F
LYNCHBURG      PTCLDY    58  50  75 SW6       29.80F
DANVILLE       CLEAR     52  47  83 SW5       29.84S
SOUTH BOSTON*  NOT AVBL
MARTINSVILLE   CLEAR     61  50  68 W3        29.87F
ROANOKE        PTCLDY    66  49  54 W14G31    29.82F
BLACKSBURG     CLOUDY    61  55  82 W10G22    29.87F
DUBLIN*        CLOUDY    63  54  72 NW17G26   29.88S
MARION*        PTCLDY    52  48  86 W17G23    29.95F
HILLSVILLE*    CLEAR     56  50  81 W14G22    29.90F
RICHLANDS*     PTSUNNY   58  35  41 W8        29.96F
WISE*          CLEAR     59  50  72 W10G18    29.99F
ABINGDON*      CLEAR     52  49  89 W3        29.98S
$$

MDZ021>025-VAZ099-100-260900-
SOUTHERN MARYLAND AND THE DELMARVA PENINSULA

CITY           SKY/WX    TMP DP  RH WIND       PRES   REMARKS
PATUXENT RIVER MOCLDY    56  46  69 W10       29.68S
BAY BRIDGE APT   N/A     59  48  67 W8        29.68R
LEONARDTOWN    PTCLDY    54  45  71 W5        29.70S
DOVER          MOCLDY    59  48  67 W8        29.62R
GEORGETOWN     CLEAR     56  46  69 SW6       29.66S
EASTON         PTCLDY    62  51  67 NW8       29.71R
CAMBRIDGE      CLEAR     55  46  71 W5        29.67S
SALISBURY      CLEAR     57  49  74 W7        29.67S
OCEAN CITY     CLEAR     56  48  74 W7        29.66S
WALLOPS ISLAND CLEAR     59  51  75 W7        29.68F
ACCOMACK*      CLEAR     55  46  71 SW7       29.69F
$$

NCZ012>017-030>032-260900-
EASTERN NORTH CAROLINA

CITY           SKY/WX    TMP DP  RH WIND       PRES   REMARKS
ELIZABETH CITY CLEAR     57  45  64 W8        29.75F
AHOSKIE*       CLEAR     52  44  74 CALM      29.78S
EDENTON*       CLEAR     58  48  68 W7        29.77F
CURRITUCK*     CLEAR     57  43  58 SW8       29.74F
KILL DEVIL HLS CLEAR     60  47  62 W8        29.74F
MANTEO         CLEAR     60  46  61 W9        29.76F
CAPE HATTERAS  CLEAR     61  51  70 W10G17    29.77F
TARBORO*       SUNNY     55  45  68 W5        29.81S
GOLDSBORO      CLEAR     53  49  87 W6        29.81F
WASHINGTON     CLEAR     53  44  70 W3        29.80S
GREENVILLE     CLEAR     54  45  71 CALM      29.83S
NEW BERN       CLEAR     57  44  62 W9        29.82F
WILMINGTON     CLEAR     55  44  66 W8        29.85F
$$

VAZ048-260900-
ELSEWHERE

CITY           SKY/WX    TMP DP  RH WIND       PRES   REMARKS
HARRISBURG PA  PTCLDY    59  36  42 NW18      29.65R
BALTIMORE      PTCLDY    51  45  79 W7        29.67R
ANNAPOLIS      CLEAR     54  45  71 CALM      29.68R
ANDREWS AFB    CLEAR     59  44  57 W14G21    29.68S
WILMINGTON DE  MOCLDY    59  48  67 W8        29.63S
PHILADELPHIA   PTCLDY    57  49  74 W9        29.61S
WILDWOOD NJ*   MOCLDY    61  46  59 W10G17    29.63S
ATLANTIC CITY  MOCLDY    56  47  71 W7        29.61S
HENDERSON NC   CLEAR     51  44  77 SW5       29.80F
GREENSBORO     CLEAR     61  49  64 NW15G22   29.86S
ROCKY MOUNT    CLEAR     55  44  66 W5        29.81S
FAYETTEVILLE   CLEAR     57  44  62 SW10      29.85F
CHARLOTTE      CLEAR     51  46  83 W5        29.91F
$$

VAZ100-260900-
MARINE

STATION/POSITION TIME  TEMP    WIND        PRES    WAVE   SWELL
                       AIR SEA DIR/SP/G            HT/PER HT/PER
                 (UTC) (F)     (DEG/KT/KT) (MB)    (FT/S) (FT/S)
44066 TX TWR #4  0800   64 65  270/ 21/ 25 1000.0F   7/ 7
CAPE MAY NJ      0800   60 63  260/ 18/ 20 1002.5S
LEWES DE         0800   60 60  250/ 12/ 15 1003.2F
15NM E FENWICK I 0800   63 64  250/ 17/ 19 1003.2F   3/ 5   2/ 9
OCEAN-CITY-INLET 0800   58 61  280/  8/ 11 1003.8F
WACHAPREAGUE VA  0800   57 60  260/  4/  6 1005.5S
THOMAS POINT MD  0800   59 62  270/ 10/ 10 1006.1R
GOOSES REEF MD   0800   60     270/ 12/ 14 1005.4S
COVE POINT MD    0800   59     280/ 11/ 13 1004.9R
SOLOMONS ISLAND  0800      63                N/A
BISHOPS HEAD MD  0800   61 58  270/ 12/ 15 1004.4S
PINEY POINT MD   0800          300/  8/  9   N/A
POTOMAC MD       0800   60     280/ 12/ 16 1004.5F
CAMBRIDGE MD     0800   59 60  240/  7/ 11 1004.4S
LEWISETTA VA     0800   58 60  260/ 11/ 13 1004.9F
RAPPAHANNOCK LGT 0800          270/ 17/ 18 1005.9F
STINGRAY PT      0800   59     290/ 12/ 14 1006.4S
YORK RVR RNG VA  0800   60     280/ 16/ 17 1005.2F
YORKTOWN VA      0800   59 64  280/ 10/ 11 1005.8F
JAMESTOWN VA     0800   60     320/ 12/ 14   N/A
DOMINION TERM VA 0800   58     300/ 12/ 14 1006.5F
KIPTOPEKE VA     0800      66  290/  9/ 11   N/A
CHES BAY BRIDGE  0800   61 63  250/ 14/ 17 1005.9F
CHESAPEAKE LGHT  0700   63     270/ 19/ 21 1006.9F
WILLOUBY STN VA  0800   59     290/ 10/ 12 1005.0F
S CRANEY ISL VA  0800          250/  4/  6 1006.4F
CAPE HENRY BUOY  0800      67                N/A     3/ 4
1ST LANDING BUOY 0800   62     270/ 16/ 19 1006.4S
CAPE CHARLES BUO 0800      66                N/A     3/ 3   2/10
64NM E OF VA BCH 0800   66 66  270/ 19/ 23 1005.4F   4/ 5   2/ 9
DUCK PIER NC     0800   62 66  260/ 12/ 16 1006.5R
44100 DUCK FRF   0800      67                N/A     3/ 3
44056 DUCK FRF   0800                        N/A     2/11
OREGON INLET NC  0800   61 66  240/ 14/ 18 1007.3F
HATTERAS NC      0800   63 67  250/  9/ 13 1008.6F
DIAMOND SHLS NC  0800   69     260/ 21/ 25 1008.3F   4/ 5   2/ 9
CAPE LOOKOUT NC  0700   68     270/ 15/ 18 1009.9F
$$



USA.gov is the U.S. government's official web portal to all federal, state and local government web resources and services.